| time (UTC) | temp C | wind direction | speed KPH | gust KPH | rain 1hr cm | rain 24hr cm | rain mn cm | humidity % | barometer mb |
| 20260507020100 | 16 | 0 | 0.0 | 0.0 | 0.00 | 0.05 | 0.05 | 96 | 1010.0 |
| 20260507014557 | 16 | 0 | 0.0 | 0.0 | 0.00 | 0.05 | 0.05 | 96 | 1010.2 |
| 20260507013052 | 16 | 0 | 0.0 | 0.0 | 0.00 | 0.05 | 0.05 | 96 | 1010.1 |
| 20260507011601 | 17 | 0 | 0.0 | 0.0 | 0.00 | 0.05 | 0.05 | 95 | 1010.0 |
| 20260507010058 | 17 | 0 | 0.0 | 0.0 | 0.00 | 0.05 | 0.05 | 95 | 1010.1 |
| 20260507004550 | 17 | 0 | 0.0 | 0.0 | 0.00 | 0.05 | 0.05 | 94 | 1010.0 |
| 20260507003111 | 17 | 0 | 0.0 | 0.0 | 0.00 | 0.05 | 0.05 | 94 | 1009.8 |
| 20260507001612 | 17 | 0 | 0.0 | 0.0 | 0.00 | 0.05 | 0.05 | 93 | 1009.7 |
| 20260507000058 | 18 | 131 | 1.6 | 3.2 | 0.00 | 0.05 | 0.05 | 93 | 1009.4 |
| 20260506234555 | 18 | 145 | 0.0 | 1.6 | 0.00 | 0.05 | 0.05 | 92 | 1009.6 |
| 20260506233055 | 18 | 120 | 1.6 | 1.6 | 0.00 | 0.05 | 0.05 | 91 | 1009.4 |
| 20260506231604 | 18 | 0 | 0.0 | 3.2 | 0.00 | 0.05 | 0.05 | 90 | 1009.4 |
| 20260506230113 | 19 | 123 | 1.6 | 4.8 | 0.00 | 0.05 | 0.05 | 90 | 1009.5 |
| 20260506224553 | 19 | 114 | 1.6 | 3.2 | 0.00 | 0.05 | 0.05 | 89 | 1009.5 |
| 20260506223054 | 20 | 141 | 1.6 | 4.8 | 0.00 | 0.05 | 0.05 | 88 | 1009.6 |
| 20260506221606 | 20 | 131 | 1.6 | 3.2 | 0.00 | 0.05 | 0.05 | 89 | 1009.6 |
| 20260506220056 | 19 | 120 | 0.0 | 3.2 | 0.00 | 0.05 | 0.05 | 89 | 1009.5 |
| 20260506214554 | 19 | 0 | 1.6 | 4.8 | 0.00 | 0.05 | 0.05 | 89 | 1009.9 |
| 20260506213106 | 19 | 150 | 1.6 | 3.2 | 0.00 | 0.05 | 0.05 | 89 | 1009.5 |
| 20260506211555 | 19 | 112 | 1.6 | 6.4 | 0.00 | 0.05 | 0.05 | 88 | 1009.6 |
| 20260506210104 | 19 | 112 | 1.6 | 3.2 | 0.00 | 0.05 | 0.05 | 89 | 1009.3 |
| 20260506204602 | 19 | 112 | 1.6 | 8.0 | 0.00 | 0.05 | 0.05 | 89 | 1009.6 |
| 20260506203121 | 19 | 131 | 0.0 | 6.4 | 0.00 | 0.05 | 0.05 | 89 | 1009.6 |
| 20260506201556 | 19 | 115 | 1.6 | 8.0 | 0.00 | 0.05 | 0.05 | 89 | 1009.8 |
| 20260506200057 | 19 | 117 | 1.6 | 6.4 | 0.00 | 0.05 | 0.05 | 89 | 1009.7 |
| 20260506194600 | 19 | 136 | 3.2 | 9.7 | 0.00 | 0.05 | 0.05 | 89 | 1010.0 |
| 20260506193104 | 19 | 65 | 3.2 | 8.0 | 0.00 | 0.05 | 0.05 | 90 | 1010.2 |
| 20260506191553 | 19 | 89 | 3.2 | 6.4 | 0.00 | 0.05 | 0.05 | 91 | 1010.9 |
| 20260506190056 | 18 | 106 | 3.2 | 8.0 | 0.00 | 0.05 | 0.05 | 92 | 1010.8 |
| 20260506184554 | 18 | 134 | 3.2 | 12.9 | 0.00 | 0.05 | 0.05 | 91 | 1010.9 |
| 20260506183105 | 18 | 141 | 1.6 | 9.7 | 0.03 | 0.05 | 0.05 | 92 | 1011.1 |
| 20260506181556 | 19 | 138 | 1.6 | 11.3 | 0.05 | 0.05 | 0.05 | 93 | 1011.0 |
| 20260506180058 | 18 | 82 | 3.2 | 11.3 | 0.05 | 0.05 | 0.05 | 95 | 1011.3 |
| 20260506174556 | 18 | 138 | 1.6 | 9.7 | 0.05 | 0.05 | 0.05 | 95 | 1011.3 |
| 20260506173059 | 18 | 147 | 1.6 | 8.0 | 0.03 | 0.03 | 0.03 | 92 | 1011.6 |
| 20260506171550 | 18 | 139 | 3.2 | 16.1 | 0.00 | 0.00 | 0.00 | 91 | 1011.9 |
| 20260506170057 | 18 | 169 | 1.6 | 4.8 | 0.00 | 0.00 | 0.00 | 90 | 1011.9 |
| 20260506164606 | 19 | 124 | 1.6 | 8.0 | 0.00 | 0.00 | 0.00 | 89 | 1012.6 |
| 20260506163101 | 19 | 74 | 3.2 | 12.9 | 0.00 | 0.00 | 0.00 | 88 | 1012.8 |
| 20260506161555 | 19 | 97 | 3.2 | 12.9 | 0.00 | 0.00 | 0.00 | 86 | 1012.9 |
| 20260506160057 | 20 | 82 | 3.2 | 16.1 | 0.00 | 0.00 | 0.00 | 85 | 1012.9 |
| 20260506154554 | 20 | 151 | 4.8 | 20.9 | 0.00 | 0.00 | 0.00 | 86 | 1013.0 |
| 20260506153053 | 20 | 161 | 4.8 | 12.9 | 0.00 | 0.00 | 0.00 | 84 | 1013.1 |
| 20260506151600 | 19 | 124 | 3.2 | 12.9 | 0.00 | 0.00 | 0.00 | 85 | 1013.1 |
| 20260506144555 | 20 | 184 | 3.2 | 14.5 | 0.00 | 0.00 | 0.00 | 84 | 1013.2 |
| 20260506143053 | 20 | 139 | 3.2 | 16.1 | 0.00 | 0.00 | 0.00 | 82 | 1013.3 |
| 20260506141552 | 20 | 86 | 3.2 | 11.3 | 0.00 | 0.00 | 0.00 | 84 | 1013.0 |
| 20260506140052 | 20 | 151 | 3.2 | 8.0 | 0.00 | 0.00 | 0.00 | 85 | 1013.2 |
| 20260506134552 | 19 | 112 | 4.8 | 9.7 | 0.00 | 0.00 | 0.00 | 85 | 1013.3 |
| 20260506133109 | 18 | 136 | 3.2 | 14.5 | 0.00 | 0.00 | 0.00 | 87 | 1013.3 |
| 20260506131608 | 18 | 140 | 4.8 | 16.1 | 0.00 | 0.00 | 0.00 | 88 | 1013.5 |
| 20260506130053 | 18 | 103 | 3.2 | 16.1 | 0.00 | 0.00 | 0.00 | 89 | 1013.5 |
| 20260506124552 | 17 | 162 | 3.2 | 8.0 | 0.00 | 0.00 | 0.00 | 90 | 1013.6 |
| 20260506123052 | 17 | 118 | 3.2 | 8.0 | 0.00 | 0.00 | 0.00 | 91 | 1013.6 |
| 20260506121557 | 17 | 179 | 3.2 | 12.9 | 0.00 | 0.00 | 0.00 | 91 | 1013.6 |
| 20260506120103 | 16 | 156 | 3.2 | 11.3 | 0.00 | 0.00 | 0.00 | 92 | 1013.5 |
| 20260506114553 | 16 | 108 | 3.2 | 12.9 | 0.00 | 0.00 | 0.00 | 92 | 1013.6 |
| 20260506113058 | 16 | 116 | 3.2 | 8.0 | 0.00 | 0.00 | 0.00 | 92 | 1013.4 |
| 20260506111557 | 16 | 140 | 3.2 | 11.3 | 0.00 | 0.00 | 0.00 | 93 | 1013.4 |
| 20260506110101 | 16 | 0 | 1.6 | 8.0 | 0.00 | 0.00 | 0.00 | 94 | 1013.5 |
| 20260506104608 | 15 | 167 | 3.2 | 20.9 | 0.00 | 0.00 | 0.00 | 94 | 1013.5 |
| 20260506103052 | 15 | 122 | 1.6 | 6.4 | 0.00 | 0.00 | 0.00 | 94 | 1013.4 |
| 20260506101552 | 15 | 172 | 1.6 | 9.7 | 0.00 | 0.00 | 0.00 | 95 | 1013.5 |
| 20260506094600 | 15 | 166 | 3.2 | 8.0 | 0.00 | 0.00 | 0.00 | 95 | 1013.5 |
| 20260506093052 | 15 | 179 | 1.6 | 4.8 | 0.00 | 0.00 | 0.00 | 94 | 1013.5 |
| 20260506091549 | 15 | 108 | 1.6 | 9.7 | 0.00 | 0.00 | 0.00 | 94 | 1013.4 |
| 20260506090053 | 15 | 129 | 1.6 | 8.0 | 0.00 | 0.00 | 0.00 | 94 | 1013.5 |
| 20260506084618 | 15 | 131 | 1.6 | 4.8 | 0.00 | 0.00 | 0.00 | 94 | 1013.6 |
| 20260506083053 | 15 | 162 | 1.6 | 4.8 | 0.00 | 0.00 | 0.00 | 94 | 1013.8 |
| 20260506081557 | 15 | 43 | 1.6 | 4.8 | 0.00 | 0.00 | 0.00 | 93 | 1013.8 |
| 20260506080312 | 15 | 129 | 1.6 | 4.8 | 0.00 | 0.00 | 0.00 | 93 | 1013.6 |
| 20260506073058 | 16 | 158 | 3.2 | 6.4 | 0.00 | 0.00 | 0.00 | 93 | 1013.7 |
| 20260506071558 | 16 | 144 | 3.2 | 9.7 | 0.00 | 0.00 | 0.00 | 92 | 1013.6 |
| 20260506061555 | 16 | 124 | 4.8 | 12.9 | 0.00 | 0.00 | 0.00 | 90 | 1014.0 |
| 20260506044553 | 17 | 176 | 3.2 | 17.7 | 0.00 | 0.00 | 0.00 | 87 | 1014.5 |
| 20260506043052 | 17 | 147 | 3.2 | 14.5 | 0.00 | 0.00 | 0.00 | 86 | 1014.4 |
| 20260506041606 | 17 | 18 | 3.2 | 11.3 | 0.00 | 0.00 | 0.00 | 87 | 1014.3 |
| 20260506040058 | 17 | 104 | 3.2 | 9.7 | 0.00 | 0.00 | 0.00 | 87 | 1014.4 |
| 20260506034550 | 17 | 195 | 4.8 | 11.3 | 0.00 | 0.00 | 0.00 | 88 | 1014.4 |
| 20260506033051 | 17 | 130 | 1.6 | 9.7 | 0.00 | 0.00 | 0.00 | 88 | 1014.4 |
| 20260506031557 | 17 | 205 | 1.6 | 6.4 | 0.00 | 0.00 | 0.00 | 88 | 1014.4 |
| 20260506030053 | 17 | 140 | 1.6 | 9.7 | 0.00 | 0.00 | 0.00 | 88 | 1014.5 |
| 20260506024553 | 17 | 0 | 1.6 | 6.4 | 0.00 | 0.00 | 0.00 | 88 | 1014.5 |
| 20260506023106 | 17 | 148 | 3.2 | 8.0 | 0.00 | 0.00 | 0.00 | 88 | 1014.7 |
| 20260506021609 | 17 | 219 | 3.2 | 6.4 | 0.00 | 0.00 | 0.00 | 87 | 1014.7 |